Flag for Denmark Weather past 2 weeks in Copenhagen, Denmark

41 °F

Partly cloudy.

Feels Like: 31 °F
Forecast: 39 / 45 °F
Wind: 22 mph from Southwest

Location: Koebenhavn-Kastrup Airport

Current Time: Nov 27, 2015 at 10:31:44 PM

Latest Report: Nov 27, 2015 at 9:50 PM

Visibility: N/A

Pressure: 29.74 "Hg

Humidity: 87%

Dew point: 37 °F

Location of CopenhagenLocation

Historic Weather in Copenhagen — Graph


Copenhagen temperature yesterday

Maximum temperature yesterday: 45 °F (at 11:50 AM)
Minimum temperature yesterday: 36 °F (at 12:20 AM)
Average temperature yesterday: 40 °F

Past Weeks' High & Low Weather Summary

High54 °F (Nov 13, 11:52 AM)100% (Nov 12, 11:20 PM)30.12 "Hg (Nov 12, 11:20 PM)
Low28 °F (Nov 23, 6:20 AM)60% (Nov 23, 1:20 PM)29.12 "Hg (Nov 18, 4:20 AM)
Average43 °F88%29.66 "Hg
* Reported Nov 12 9:20 PM — Nov 27 9:20 PM, Copenhagen, Weather by CustomWeather, © 2015

Note: Actual official high and low records may vary slightly from our data, if they occured in-between our weather recording intervals... More about our weather records


Copenhagen weather history for previous 24 hours

Time TempWeatherWind HumidityBarometerVisibility
9:20 PM
Fri, Nov 27
43 °FPassing clouds.22 mph87%29.74 "HgN/A
8:50 PM43 °FPassing clouds.23 mph87%29.74 "Hg6 mi
8:20 PM43 °FPassing clouds.20 mph87%29.77 "Hg6 mi
8:03 PM43 °FPassing clouds.21 mph87%29.77 "Hg6 mi
7:50 PM43 °FPartly cloudy.22 mph87%29.77 "Hg6 mi
7:20 PM43 °FPartly cloudy.23 mph87%29.77 "Hg6 mi
6:50 PM43 °FPassing clouds.22 mph87%29.80 "Hg6 mi
6:20 PM43 °FPassing clouds.20 mph87%29.80 "HgN/A
5:50 PM43 °FPassing clouds.18 mph87%29.80 "HgN/A
5:20 PM43 °FPassing clouds.20 mph87%29.80 "HgN/A
4:50 PM43 °FPassing clouds.18 mph87%29.80 "HgN/A
4:20 PM43 °FPassing clouds.15 mph87%29.83 "HgN/A
3:50 PM43 °FPassing clouds.18 mph87%29.83 "HgN/A
3:20 PM43 °FPartly sunny.18 mph87%29.83 "HgN/A
2:50 PM43 °FPartly sunny.17 mph87%29.83 "HgN/A
2:20 PM43 °FPartly sunny.18 mph87%29.86 "HgN/A
1:50 PM43 °FOvercast.17 mph87%29.86 "HgN/A
1:20 PM45 °FOvercast.18 mph81%29.86 "HgN/A
12:50 PM45 °FPartly sunny.17 mph81%29.89 "HgN/A
12:20 PM45 °FPartly sunny.17 mph81%29.89 "HgN/A
11:50 AM45 °FPartly sunny.18 mph87%29.89 "HgN/A
11:20 AM45 °FPartly sunny.18 mph87%29.92 "HgN/A
10:50 AM45 °FPartly sunny.18 mph87%29.92 "HgN/A
10:20 AM45 °FPartly sunny.16 mph87%29.92 "HgN/A
9:50 AM43 °FPartly sunny.16 mph93%29.92 "HgN/A
9:20 AM43 °FPartly sunny.15 mph93%29.92 "HgN/A
8:50 AM43 °FPartly sunny.15 mph93%29.92 "HgN/A
7:50 AM43 °FOvercast.15 mph93%29.92 "HgN/A
7:20 AM43 °FOvercast.14 mph93%29.92 "HgN/A
6:50 AM43 °FPassing clouds.12 mph93%29.95 "HgN/A
6:20 AM43 °FPassing clouds.12 mph93%29.95 "HgN/A
5:50 AM43 °FPassing clouds.12 mph93%29.95 "HgN/A
4:50 AM43 °FPassing clouds.14 mph93%29.98 "HgN/A
4:20 AM41 °FPassing clouds.10 mph93%29.98 "HgN/A
3:50 AM41 °FPassing clouds.9 mph93%29.98 "HgN/A
3:20 AM41 °FPassing clouds.9 mph93%29.98 "HgN/A
2:50 AM41 °FPassing clouds.9 mph93%29.98 "HgN/A
2:20 AM39 °FClear.9 mph93%30.01 "Hg10 mi
1:50 AM37 °FClear.8 mph100%30.01 "Hg10 mi
1:20 AM37 °FClear.8 mph93%30.01 "Hg10 mi
12:50 AM37 °FClear.9 mph93%30.01 "Hg10 mi
12:20 AM36 °FClear.7 mph93%30.01 "Hg10 mi
11:50 PM
Thu, Nov 26
36 °FClear.8 mph100%30.01 "Hg10 mi
10:50 PM36 °FClear.8 mph93%30.01 "Hg10 mi
10:20 PM37 °FClear.7 mph93%30.04 "Hg10 mi
Weather by CustomWeather, © 2015

See weather overviewHow to use our weather pages